Home   Weather   Victoria   Past weeks

Flag for Canada Past Weather in Victoria, British Columbia, Canada — Yesterday and Last 2 Weeks

Now
68 °F

Passing clouds.


Feels Like: 68 °F
Forecast: 59 / 70 °F
Wind: 3 mph from East

Location: Victoria Int. Airportb. C.

Current Time: Jul 25, 2017 at 9:56:20 pm

Latest Report: Jul 25, 2017 at 9:00 pm


Visibility: 30 mi

Pressure: 29.97 "Hg

Humidity: 60%

Dew Point: 54 °F

Location of VictoriaLocation

Past Weather in Victoria — Graph

°F

Victoria Temperature Yesterday

Maximum temperature yesterday: 77 °F (at 3:00 pm)
Minimum temperature yesterday: 55 °F (at 2:00 am)
Average temperature yesterday: 66 °F

High & Low Weather Summary for the Past Weeks

 TemperatureHumidityPressure
High77 °F (Jul 18, 7:54 pm)94% (Jul 22, 5:35 am)30.26 "Hg (Jul 22, 5:35 am)
Low54 °F (Jul 17, 4:00 am)33% (Jul 18, 11:00 pm)29.95 "Hg (Jul 24, 7:00 pm)
Average64 °F66%30.08 "Hg
* Reported Jul 10 8:00 pm — Jul 25 8:00 pm, Victoria. Weather by CustomWeather, © 2017

Note: Actual official high and low records may vary slightly from our data, if they occured in-between our weather recording intervals... More about our weather records

Advertising

Victoria Weather History for the Previous 24 Hours

Scroll right to see more
 ConditionsComfort  
Time TempWeatherWind HumidityBarometerVisibility
8:00 pm
Tue, Jul 25
68 °FSunny.3 mph60%29.97 "Hg30 mi
7:00 pm73 °FSunny.5 mph47%29.97 "Hg30 mi
6:00 pm75 °FPassing clouds.6 mph47%29.98 "Hg30 mi
5:00 pm75 °FPassing clouds.7 mph50%29.99 "Hg30 mi
4:00 pm75 °FPassing clouds.8 mph50%30.01 "Hg30 mi
3:00 pm75 °FPassing clouds.9 mph50%30.02 "Hg30 mi
2:00 pm73 °FPassing clouds.8 mph53%30.03 "Hg30 mi
1:00 pm72 °FPassing clouds.7 mph57%30.03 "Hg30 mi
12:00 pm72 °FPassing clouds.7 mph53%30.04 "Hg30 mi
11:00 am72 °FPassing clouds.6 mph57%30.04 "Hg30 mi
10:00 am70 °FPassing clouds.6 mph57%30.04 "Hg30 mi
9:00 am68 °FPassing clouds.No wind60%30.04 "Hg30 mi
8:00 am63 °FPassing clouds.No wind73%30.04 "Hg30 mi
7:00 am59 °FPassing clouds.No wind82%30.03 "Hg30 mi
6:00 am55 °FPassing clouds.2 mph94%30.02 "Hg30 mi
5:00 am55 °FPassing clouds.2 mph94%30.01 "Hg30 mi
4:00 am55 °FPassing clouds.2 mph88%30.00 "Hg30 mi
3:00 am55 °FClear.No wind88%29.99 "Hg30 mi
2:00 am57 °FClear.No wind88%29.98 "Hg30 mi
1:00 am57 °FClear.No wind82%29.98 "Hg30 mi
12:00 am59 °FClear.No wind77%29.97 "Hg30 mi
11:00 pm
Mon, Jul 24
61 °FClear.No wind72%29.97 "Hg30 mi
10:00 pm63 °FPassing clouds.3 mph73%29.96 "Hg30 mi
9:00 pm68 °FPassing clouds.6 mph60%29.95 "Hg30 mi
Weather by CustomWeather, © 2017

See weather overviewHow to use our weather pages